Tracking 32460 objects as of 12-Dec-2025
HD Live streaming from Space Station
objects crossing your sky now

NOAA 16 DEB

Track NOAA 16 DEB now!
10-day predictions


NORAD ID: 41430
Int'l Code: 2000-055LK
Perigee: 713.8 km
Apogee: 763.8 km
Inclination: 99.0 °
Period: 99.4 minutes
Semi major axis: 7109 km
RCS: Unknown
Launch date: September 21, 2000
Source: United States (US)
Launch site: AIR FORCE WESTERN TEST RANGE (AFWTR)

Note: This is SATELLITE DEBRIS
Your satellite tracking list
Your tracking list is empty




NASA's NSSDC Master Catalog

Two Line Element Set (TLE):
1 41430U 00055LK  25345.50043326  .00015250  00000-0  40657-2 0  9991
2 41430  99.0077 185.5053 0035100 342.1788  17.8170 14.48162646514955
Source of the keplerian elements: AFSPC